Regional Weather Roundup
Issued by NWS

Home | Current Version | Previous Version | Graphics & Text | Print | Product List | Glossary On
Versions: 1 2 3 4 5 6 7 8 9 10 11 12 13 14 15 16 17 18 19 20 21 22 23 24 25 26 27 28 29 30 31 32 33 34 35 36 37 38 39 40 41 42 43 44 45 46 47 48 49 50
000
ASUS43 KBIS 272310
RWRND

NORTH DAKOTA REGIONAL WEATHER ROUNDUP
NATIONAL WEATHER SERVICE BISMARCK ND
500 PM CST MON FEB 27 2017

NOTE: "FAIR" INDICATES FEW OR NO CLOUDS BELOW 12,000 FEET WITH NO
SIGNIFICANT WEATHER AND/OR OBSTRUCTIONS TO VISIBILITY.


NDZ001>003-009>011-017-280000-
NORTHWEST NORTH DAKOTA

CITY           SKY/WX    TMP DP  RH WIND       PRES   REMARKS
WILLISTON      FAIR      17   8  67 E7        29.81R WCI   8
MINOT          CLOUDY    13   7  77 N7        29.84R HAZE    WCI   3
MINOT AFB      PTSUNNY   11   6  80 N6        29.84R WCI   1
$$

NDZ018>021-031>035-040>046-280000-
SOUTHWEST NORTH DAKOTA

CITY           SKY/WX    TMP DP  RH WIND       PRES   REMARKS
BISMARCK       CLOUDY    21  15  78 NE15      29.81R WCI   8
DICKINSON      CLOUDY    16  11  80 NE14      29.72S WCI   2
GARRISON         N/A     14   8  77 NE8       29.82R WCI   3
HETTINGER ARPT CLOUDY    25  18  74 NE13      29.70R WCI  14
$$

NDZ004>008-012>016-024-026-027-054-280000-
NORTHEAST NORTH DAKOTA

CITY           SKY/WX    TMP DP  RH WIND       PRES   REMARKS
GRAND FORKS    CLOUDY    23  14  68 N16       29.88R WCI  10
GRND FRKS AFB  CLOUDY    22  18  83 NE14      29.88R WCI   9
DEVILS LAKE    LGT SNOW  16  12  86 NE10      29.86R FOG     WCI   3
$$

NDZ022-023-025-028>030-036>039-047>053-280000-
SOUTHEAST NORTH DAKOTA

CITY           SKY/WX    TMP DP  RH WIND       PRES   REMARKS
FARGO          CLOUDY    32  25  75 N9        29.81R
JAMESTOWN      CLOUDY    26  19  74 NE13      29.79R WCI  15
$$





USA.gov is the U.S. government's official web portal to all federal, state and local government web resources and services.